FREGAT R/B, 41106

Orbit data source: Space-Track

FREGAT R/B, 41106 is space debris in GEO originally from a launch on Fri, 11 Dec 2015 UTC launched from the Tyuratam Missile And Space Complex (TTMTR). Debris objects in space refer to the collection of defunct objects orbiting the Earth. Examples of debris include non-operational satellites, rocket bodies, and fragments generated from explosions, collisions, or faulty payload assembly.

Not visible in the next 10 days
Identifier
41106, 2015-074B
Orbit
GEO
Country
Flag of CISCIS
Related business
Manufacturer
Lavochkin
Mission
Spacecraft
Bus & Motor
FREGAT, Unknown motor
Mass
1,000 kg wet, 1,000 kg dry
Launch date (UTC)
2015-12-11 (10 years ago)
Launch vehicle
Unknown
Launch site
Tyuratam Missile And Space Complex (TTMTR)
Object type
Payload
Rocket body
Debris
Shape & HBR
Cyl, 1.6 m
Radar Cross Section
8.683 m²

Expand to show TLE details & history
Last TLE update: 17 hours ago

TLE from 17 hours ago
0 FREGAT R/B
1 41106U 15074B   25306.10655387  .00000029  00000-0  00000-0 0  9991
2 41106   7.5908  64.4626 0196224 352.7712   6.9259  1.02892729 37160
Epoch: 2025-11-02T02:33Z
TLE epoch observation values (Epoch: 2025-11-02T02:33:26.254Z)
Latitude
-0°
Longitude
-15.57906°
Altitude
34,257.43 km
Speed
3.162 km/s
True Right ascension
04h 17m 37s
True Declination
0° 00' 00"
Sunlit
Object was in daylight at epoch
Visualization orbit readout
Latitude
Unknown
Longitude
Unknown
Altitude
Unknown
Speed
Unknown
Apparent Right ascension
Unknown
Apparent Declination
Unknown
Sunlit
N/A
Visualization observer readout
Local Sidereal Time
15:02:08
Azimuth
Unknown
Elevation
Unknown
Doppler factor
Unknown
Orbital elements
Apogee altitude
35,881.835 km
Perigee altitude
34,255.268 km
Semi-major axis
41,446.688 km
Eccentricity
0.01962
Inclination
7.5908°
RAAN
64.4626°
Arg. of periapsis
352.7712°
True anomaly
7.2038°
Mean anomaly
6.9259°
Eccentric anomaly
7.06416°
Mean motion
0.25722 °/min
Orbital period
1,399.57 mins
BSTAR
0
Loading maneuver chart data...
Computing Atmospheric mass density...
Loading historical data...
Loading historical data...
Loading historical data...
Loading historical data...
Loading historical data...
Loading historical data...
Loading historical data...

Documentation

Showing up to 5 results
|